W1BST Weather Reports


time (UTC)temp
F
wind
direction
speed
knots
gust
knots
rain 1hr
in
rain 24hr
in
rain mn
in
humidity
%
barometer
mb
20260507060015 47 294 5.2 11.3 260.27 0.00 0.00
20260507055515 47 250 4.3 10.4 260.27 0.00 0.00
20260507055015 48 269 3.5 9.6 260.27 0.00 0.00
20260507054516 48 298 2.6 8.7 260.27 0.00 0.00
20260507054015 48 267 2.6 7.8 260.27 0.00 0.00
20260507052015 48 342 1.7 4.3 260.27 0.00 0.00
20260507051015 49 297 0.0 7.8 260.27 0.00 0.00
20260507050015 48 300 3.5 7.8 260.27 0.00 0.00
20260507045015 49 287 2.6 8.7 260.27 0.00 0.00
20260507044515 49 300 0.0 3.5 260.27 0.00 0.00
20260507044015 49 280 1.7 5.2 260.27 0.00 0.00
20260507043515 49 297 1.7 4.3 260.27 0.00 0.00
20260507042015 49 325 4.3 8.7 260.27 0.00 0.00
20260507041015 49 308 4.3 9.6 260.27 0.00 0.00
20260507040015 49 278 3.5 7.8 260.27 0.00 0.00
20260507035515 49 280 4.3 7.8 260.27 0.00 0.00
20260507034515 50 323 4.3 8.7 260.27 0.00 0.00
20260507034015 51 271 3.5 8.7 260.27 0.00 0.00
20260507033015 51 274 4.3 9.6 260.27 0.00 0.34
20260507032515 50 312 3.5 10.4 260.27 0.00 0.34
20260507032015 50 266 4.3 8.7 260.26 0.00 0.33
20260507031515 51 281 5.2 13.9 260.26 0.00 0.33
20260507031015 51 277 6.1 13.0 260.26 0.00 0.33
20260507030015 51 311 4.3 7.8 260.25 0.00 0.32
20260507025516 51 226 5.2 10.4 260.25 0.00 0.32
20260507024515 52 269 6.1 12.2 260.25 0.00 0.32
20260507024015 52 287 6.1 12.2 260.25 0.00 0.32
20260507021515 54 288 5.2 12.2 260.25 0.00 0.32
20260507021015 54 287 4.3 12.2 260.25 0.00 0.32
20260507020015 55 278 5.2 7.8 260.25 0.00 0.32
20260507015015 56 273 6.1 13.0 260.25 0.00 0.32
20260507014015 56 274 4.3 7.0 260.25 0.00 0.32
20260507013515 56 315 5.2 10.4 260.24 0.00 0.31
20260507013015 56 278 4.3 9.6 260.24 0.00 0.31
20260507012015 57 276 5.2 8.7 260.24 0.00 0.31
20260507010515 57 281 4.3 11.3 260.24 0.00 0.31
20260507010015 58 260 5.2 12.2 260.23 0.00 0.30
20260507005515 58 309 4.3 10.4 260.22 0.00 0.29
20260507005015 58 266 4.3 7.8 260.22 0.00 0.29
20260507004015 58 277 3.5 8.7 260.21 0.00 0.28
20260507003515 58 250 1.7 9.6 260.21 0.00 0.28
20260507003015 58 249 4.3 9.6 260.21 0.00 0.28
20260507001516 58 274 3.5 7.0 260.21 0.00 0.28
20260507001015 58 277 3.5 6.1 260.20 0.00 0.27
20260507000015 58 252 3.5 8.7 260.20 0.00 0.27
20260506235515 58 225 3.5 7.8 260.20 0.00 0.27
20260506235015 58 127 5.2 12.2 260.20 0.00 0.27
20260506234016 58 136 3.5 7.8 260.19 0.00 0.26
20260506232016 58 117 4.3 13.9 260.19 0.00 0.26
20260506231515 59 224 4.3 9.6 260.19 0.00 0.26
20260506231015 59 225 5.2 11.3 260.19 0.00 0.26
20260506225015 59 242 4.3 9.6 260.19 0.00 0.26
20260506224015 59 231 3.5 9.6 260.19 0.00 0.26
20260506223516 59 135 4.3 7.8 260.19 0.00 0.26
20260506223015 59 240 4.3 9.6 260.19 0.00 0.26
20260506222516 59 232 4.3 9.6 260.19 0.00 0.26
20260506220016 59 263 4.3 10.4 260.19 0.00 0.26
20260506215016 60 235 4.3 11.3 260.19 0.00 0.26
20260506212017 59 108 4.3 9.6 260.19 0.00 0.26
20260506211016 60 214 4.3 12.2 260.19 0.00 0.26
20260506210517 60 221 3.5 7.8 260.19 0.00 0.26
20260506204516 61 215 2.6 6.1 260.18 0.00 0.25
20260506204017 61 212 2.6 7.0 260.18 0.00 0.25
20260506203516 61 201 2.6 5.2 260.18 0.00 0.25
20260506203016 61 228 3.5 7.8 260.18 0.00 0.25
20260506202016 60 231 2.6 7.8 260.17 0.00 0.24
20260506200516 61 236 2.6 7.0 260.12 0.00 0.19
20260506200016 61 242 3.5 5.2 260.11 0.00 0.18
20260506194519 61 278 2.6 4.3 260.07 0.00 0.14
20260506193516 61 226 3.5 9.6 260.06 0.00 0.13
20260506193016 61 277 5.2 9.6 260.05 0.00 0.12
20260506191516 61 270 3.5 9.6 260.04 0.00 0.11
20260506190516 62 255 4.3 8.7 260.04 0.00 0.11
20260506190016 62 253 4.3 8.7 260.03 0.00 0.10
20260506185516 62 205 3.5 7.0 260.03 0.00 0.10
20260506185016 62 211 3.5 7.0 260.03 0.00 0.10
20260506184516 62 191 4.3 8.7 260.03 0.00 0.10
20260506182516 63 217 2.6 6.1 260.01 0.00 0.08
20260506182016 62 280 2.6 7.0 260.01 0.00 0.08
20260506181516 62 307 3.5 8.7 260.00 0.00 0.07
20260506181016 63 232 2.6 7.8 259.99 0.00 0.06
20260506180516 63 281 3.5 6.1 259.98 0.00 0.05
20260506175016 63 233 4.3 7.8 259.96 0.00 0.03
20260506174516 63 249 4.3 8.7 259.96 0.00 0.03
20260506174016 64 243 3.5 6.1 259.95 0.00 0.02
20260506173516 64 259 2.6 5.2 259.95 0.00 0.02
20260506173016 64 225 2.6 5.2 259.94 0.00 0.01
20260506171016 65 238 1.7 3.5 259.93 0.00 0.00
20260506170516 66 238 1.7 4.3 259.93 0.00 0.00
20260506170016 66 129 1.7 6.1 259.93 0.00 0.00
20260506165016 66 139 3.5 8.7 259.93 0.00 0.00
20260506164516 67 191 2.6 7.0 259.93 0.00 0.00
20260506164016 68 245 1.7 4.3 259.93 0.00 0.00
20260506161016 65 226 1.7 5.2 259.93 0.00 0.00
20260506160516 66 136 0.9 9.6 259.93 0.00 0.00
20260506155016 64 232 2.6 6.1 259.93 0.00 0.00
20260506154016 64 235 1.7 6.1 259.93 0.00 0.00
20260506151516 65 297 1.7 5.2 259.93 0.00 0.00
20260506145516 64 248 1.7 6.1 259.93 0.00 0.00
20260506140016 64 224 2.6 5.2 259.93 0.00 0.00
20260506135016 63 242 2.6 6.1 259.93 0.00 0.00
20260506134516 63 287 3.5 7.8 259.93 0.00 0.00
20260506132516 63 231 3.5 7.0 259.93 0.00 0.00
20260506132019 63 304 0.9 4.3 259.93 0.00 0.00
20260506131016 63 226 1.7 6.1 259.93 0.00 0.00
20260506130016 64 267 2.6 4.3 259.93 0.00 0.00
20260506124016 63 287 1.7 7.8 259.93 0.00 0.00
20260506122018 62 221 1.7 6.1 259.93 0.00 0.00
20260506121016 62 127 1.7 5.2 259.93 0.00 0.00
20260506115016 61 117 1.7 3.5 259.93 0.00 0.00
20260506110016 59 158 1.7 5.2 259.93 0.00 0.00
20260506104016 59 229 2.6 6.1 259.93 0.00 0.00
20260506103516 59 205 2.6 5.2 259.93 0.00 0.00
20260506102516 58 256 2.6 5.2 259.93 0.00 0.00
20260506101516 59 132 1.7 5.2 259.93 0.00 0.00
20260506101017 58 169 1.7 2.6 259.93 0.00 0.00
20260506100516 58 226 1.7 3.5 259.93 0.00 0.00
20260506100016 58 214 1.7 3.5 259.93 0.00 0.00
20260506095016 58 229 1.7 3.5 259.93 0.00 0.00
20260506094016 58 253 2.6 3.5 259.93 0.00 0.00
20260506093516 58 259 2.6 4.3 259.93 0.00 0.00
20260506093016 58 246 1.7 3.5 259.93 0.00 0.00
20260506092516 58 229 1.7 2.6 259.93 0.00 0.00
20260506092016 58 301 1.7 4.3 259.93 0.00 0.00
20260506091516 59 267 1.7 4.3 259.93 0.00 0.00
20260506091016 58 293 2.6 6.1 259.93 0.00 0.00
20260506085017 58 295 3.5 6.1 259.93 0.00 0.00
20260506084516 58 208 2.6 5.2 259.93 0.00 0.00
20260506084016 59 260 2.6 4.3 259.93 0.00 0.00
20260506082516 59 284 1.7 6.1 259.93 0.00 0.00
20260506082016 59 308 1.7 2.6 259.93 0.00 0.00
20260506081016 60 277 2.6 6.1 259.93 0.00 0.00
20260506073516 60 302 1.7 6.1 259.93 0.00 0.00
20260506072016 59 262 2.6 7.0 259.93 0.00 0.00
20260506071016 60 291 2.6 7.0 259.93 0.00 0.00
20260506062516 61 300 3.5 7.8 259.93 0.00 0.00
20260506062016 61 208 3.5 7.8 259.93 0.00 0.00
20260506061016 61 212 1.7 7.8 259.93 0.00 0.00